Time,TemperatureF,DewpointF,PressureIn,WindDirection,WindDirectionDegrees,WindSpeedMPH,WindSpeedGustMPH,Humidity,HourlyPrecipIn,Conditions,Clouds,dailyrainin,SoftwareType,DateUTC
2013-03-23 00:02:00,53.0,40.0,-100.00,NNW,342,3.0,3.0,61,-99.99,,,-99.99,,2013-03-23 07:02:00,
2013-03-23 00:12:00,53.0,38.0,-100.00,North,353,3.0,4.0,57,-99.99,,,-99.99,,2013-03-23 07:12:00,
2013-03-23 00:22:00,52.0,35.0,-100.00,NNW,339,3.0,4.0,53,-99.99,,,-99.99,,2013-03-23 07:22:00,
2013-03-23 00:32:00,51.0,34.0,-100.00,NNW,348,2.0,3.0,53,-99.99,,,-99.99,,2013-03-23 07:32:00,
2013-03-23 00:42:00,51.0,35.0,-100.00,North,358,2.0,3.0,54,-99.99,,,-99.99,,2013-03-23 07:42:00,
2013-03-23 00:52:00,51.0,35.0,-100.00,North,359,2.0,3.0,54,-99.99,,,-99.99,,2013-03-23 07:52:00,
2013-03-23 01:02:00,51.0,34.0,-100.00,North,352,2.0,2.0,53,-99.99,,,-99.99,,2013-03-23 08:02:00,
2013-03-23 01:12:00,51.0,34.0,-100.00,North,355,2.0,3.0,52,-99.99,,,-99.99,,2013-03-23 08:12:00,
2013-03-23 01:22:00,51.0,34.0,-100.00,NNW,328,2.0,3.0,53,-99.99,,,-99.99,,2013-03-23 08:22:00,
2013-03-23 01:31:00,51.0,34.0,-100.00,NNW,328,2.0,3.0,53,-99.99,,,-99.99,,2013-03-23 08:31:00,
2013-03-23 01:42:00,51.0,37.0,-100.00,North,360,2.0,2.0,58,-99.99,,,-99.99,,2013-03-23 08:42:00,
2013-03-23 01:52:00,51.0,36.0,-100.00,NE,35,2.0,5.0,56,-99.99,,,-99.99,,2013-03-23 08:52:00,
2013-03-23 02:02:00,52.0,35.0,-100.00,NNE,24,3.0,4.0,52,-99.99,,,-99.99,,2013-03-23 09:02:00,
2013-03-23 02:12:00,52.0,35.0,-100.00,NE,42,4.0,5.0,52,-99.99,,,-99.99,,2013-03-23 09:12:00,
2013-03-23 02:22:00,51.0,34.0,-100.00,ENE,72,3.0,4.0,52,-99.99,,,-99.99,,2013-03-23 09:22:00,
2013-03-23 02:32:00,52.0,33.0,-100.00,NE,39,2.0,5.0,48,-99.99,,,-99.99,,2013-03-23 09:32:00,
2013-03-23 02:42:00,53.0,32.0,-100.00,North,8,3.0,5.0,45,-99.99,,,-99.99,,2013-03-23 09:42:00,
2013-03-23 02:52:00,51.0,32.0,-100.00,NNW,328,4.0,5.0,48,-99.99,,,-99.99,,2013-03-23 09:52:00,
2013-03-23 03:02:00,51.0,34.0,-100.00,NW,311,4.0,5.0,51,-99.99,,,-99.99,,2013-03-23 10:02:00,
2013-03-23 03:12:00,51.0,35.0,-100.00,NW,311,4.0,5.0,55,-99.99,,,-99.99,,2013-03-23 10:12:00,
2013-03-23 03:23:00,50.0,38.0,-100.00,NW,323,5.0,5.0,63,-99.99,,,-99.99,,2013-03-23 10:23:00,
2013-03-23 03:33:00,50.0,39.0,-100.00,NNW,330,4.0,4.0,67,-99.99,,,-99.99,,2013-03-23 10:33:00,
2013-03-23 03:42:00,50.0,41.0,-100.00,NW,325,4.0,4.0,70,-99.99,,,-99.99,,2013-03-23 10:42:00,
2013-03-23 03:52:00,50.0,41.0,-100.00,NW,306,4.0,5.0,72,-99.99,,,-99.99,,2013-03-23 10:52:00,
2013-03-23 04:02:00,50.0,41.0,-100.00,NW,309,4.0,4.0,71,-99.99,,,-99.99,,2013-03-23 11:02:00,
2013-03-23 04:12:00,50.0,41.0,-100.00,NNW,330,3.0,3.0,71,-99.99,,,-99.99,,2013-03-23 11:12:00,
2013-03-23 04:22:00,49.0,39.0,-100.00,NE,44,2.0,3.0,68,-99.99,,,-99.99,,2013-03-23 11:22:00,
2013-03-23 04:32:00,50.0,36.0,-100.00,ENE,70,1.0,4.0,59,-99.99,,,-99.99,,2013-03-23 11:32:00,
2013-03-23 04:42:00,48.0,35.0,-100.00,South,174,3.0,3.0,60,-99.99,,,-99.99,,2013-03-23 11:42:00,
2013-03-23 04:51:00,49.0,34.0,-100.00,South,170,2.0,4.0,57,-99.99,,,-99.99,,2013-03-23 11:51:00,
2013-03-23 05:02:00,48.0,33.0,-100.00,South,180,3.0,3.0,55,-99.99,,,-99.99,,2013-03-23 12:02:00,
2013-03-23 05:12:00,48.0,28.0,-100.00,SE,143,1.0,2.0,46,-99.99,,,-99.99,,2013-03-23 12:12:00,
2013-03-23 05:22:00,49.0,28.0,-100.00,West,280,1.0,3.0,44,-99.99,,,-99.99,,2013-03-23 12:22:00,
2013-03-23 05:32:00,50.0,33.0,-100.00,NNW,327,1.0,3.0,51,-99.99,,,-99.99,,2013-03-23 12:32:00,
2013-03-23 05:42:00,49.0,37.0,-100.00,SW,223,1.0,3.0,63,-99.99,,,-99.99,,2013-03-23 12:42:00,
2013-03-23 05:52:00,48.0,37.0,-100.00,NNE,19,1.0,3.0,65,-99.99,,,-99.99,,2013-03-23 12:52:00,
2013-03-23 06:02:00,48.0,38.0,-100.00,NE,41,1.0,2.0,69,-99.99,,,-99.99,,2013-03-23 13:02:00,
2013-03-23 06:11:00,48.0,38.0,-100.00,SE,145,0.0,2.0,68,-99.99,,,-99.99,,2013-03-23 13:11:00,
2013-03-23 06:22:00,48.0,36.0,-100.00,East,79,1.0,3.0,64,-99.99,,,-99.99,,2013-03-23 13:22:00,
2013-03-23 06:32:00,48.0,38.0,-100.00,ESE,107,2.0,3.0,67,-99.99,,,-99.99,,2013-03-23 13:32:00,
2013-03-23 06:42:00,48.0,36.0,-100.00,ESE,110,2.0,3.0,63,-99.99,,,-99.99,,2013-03-23 13:42:00,
2013-03-23 06:52:00,48.0,35.0,-100.00,ESE,113,2.0,4.0,60,-99.99,,,-99.99,,2013-03-23 13:52:00,
2013-03-23 07:02:00,48.0,34.0,-100.00,East,92,3.0,4.0,59,-99.99,,,-99.99,,2013-03-23 14:02:00,
2013-03-23 07:12:00,48.0,31.0,-100.00,ESE,106,3.0,4.0,51,-99.99,,,-99.99,,2013-03-23 14:12:00,
2013-03-23 07:22:00,49.0,27.0,-100.00,ESE,116,3.0,5.0,43,-99.99,,,-99.99,,2013-03-23 14:22:00,
2013-03-23 07:32:00,48.0,27.0,-100.00,SSE,159,2.0,6.0,44,-99.99,,,-99.99,,2013-03-23 14:32:00,
2013-03-23 07:42:00,47.0,25.0,-100.00,SSE,149,5.0,5.0,41,-99.99,,,-99.99,,2013-03-23 14:42:00,
2013-03-23 08:02:00,48.0,25.0,-100.00,East,95,3.0,5.0,41,-99.99,,,-99.99,,2013-03-23 15:02:00,
2013-03-23 08:11:00,49.0,30.0,-100.00,ESE,112,4.0,5.0,47,-99.99,,,-99.99,,2013-03-23 15:11:00,
2013-03-23 08:22:00,49.0,31.0,-100.00,ESE,106,4.0,5.0,50,-99.99,,,-99.99,,2013-03-23 15:22:00,
2013-03-23 08:33:00,50.0,33.0,-100.00,ESE,109,3.0,7.0,52,-99.99,,,-99.99,,2013-03-23 15:33:00,
2013-03-23 08:43:00,51.0,33.0,-100.00,SE,126,3.0,7.0,50,-99.99,,,-99.99,,2013-03-23 15:43:00,
2013-03-23 08:52:00,52.0,33.0,-100.00,SE,132,5.0,6.0,49,-99.99,,,-99.99,,2013-03-23 15:52:00,
2013-03-23 09:03:00,53.0,33.0,-100.00,SE,131,4.0,7.0,46,-99.99,,,-99.99,,2013-03-23 16:03:00,
2013-03-23 09:12:00,54.0,33.0,-100.00,SSE,149,4.0,5.0,44,-99.99,,,-99.99,,2013-03-23 16:12:00,
2013-03-23 09:22:00,54.0,31.0,-100.00,SSE,156,4.0,6.0,42,-99.99,,,-99.99,,2013-03-23 16:22:00,
2013-03-23 09:32:00,54.0,31.0,-100.00,South,172,5.0,6.0,42,-99.99,,,-99.99,,2013-03-23 16:32:00,
2013-03-23 09:42:00,56.0,31.0,-100.00,South,171,3.0,4.0,38,-99.99,,,-99.99,,2013-03-23 16:42:00,
2013-03-23 09:52:00,59.0,30.0,-100.00,SSW,201,2.0,3.0,33,-99.99,,,-99.99,,2013-03-23 16:52:00,
2013-03-23 10:02:00,60.0,32.0,-100.00,WNW,283,1.0,4.0,34,-99.99,,,-99.99,,2013-03-23 17:02:00,
2013-03-23 10:11:00,60.0,28.0,-100.00,West,278,2.0,5.0,30,-99.99,,,-99.99,,2013-03-23 17:11:00,
2013-03-23 10:22:00,60.0,29.0,-100.00,NW,309,2.0,7.0,31,-99.99,,,-99.99,,2013-03-23 17:22:00,
2013-03-23 10:32:00,61.0,31.0,-100.00,WNW,298,3.0,5.0,32,-99.99,,,-99.99,,2013-03-23 17:32:00,
2013-03-23 10:42:00,61.0,30.0,-100.00,WSW,244,3.0,5.0,31,-99.99,,,-99.99,,2013-03-23 17:42:00,
2013-03-23 10:52:00,61.0,32.0,-100.00,WNW,290,2.0,8.0,34,-99.99,,,-99.99,,2013-03-23 17:52:00,
2013-03-23 11:02:00,61.0,37.0,-100.00,WNW,290,4.0,7.0,41,-99.99,,,-99.99,,2013-03-23 18:02:00,
2013-03-23 11:12:00,61.0,39.0,-100.00,WNW,297,4.0,7.0,44,-99.99,,,-99.99,,2013-03-23 18:12:00,
2013-03-23 11:22:00,61.0,39.0,-100.00,WNW,295,4.0,6.0,44,-99.99,,,-99.99,,2013-03-23 18:22:00,
2013-03-23 11:32:00,61.0,39.0,-100.00,WNW,297,4.0,6.0,44,-99.99,,,-99.99,,2013-03-23 18:32:00,
2013-03-23 11:42:00,62.0,40.0,-100.00,WNW,298,3.0,9.0,45,-99.99,,,-99.99,,2013-03-23 18:42:00,
2013-03-23 11:52:00,62.0,40.0,-100.00,WNW,302,5.0,7.0,45,-99.99,,,-99.99,,2013-03-23 18:52:00,
2013-03-23 12:02:00,62.0,40.0,-100.00,WNW,291,4.0,7.0,44,-99.99,,,-99.99,,2013-03-23 19:02:00,
2013-03-23 12:12:00,63.0,41.0,-100.00,NW,311,4.0,7.0,44,-99.99,,,-99.99,,2013-03-23 19:12:00,
2013-03-23 12:22:00,64.0,42.0,-100.00,WNW,298,4.0,6.0,44,-99.99,,,-99.99,,2013-03-23 19:22:00,
2013-03-23 12:32:00,65.0,41.0,-100.00,WNW,300,3.0,7.0,42,-99.99,,,-99.99,,2013-03-23 19:32:00,
2013-03-23 12:42:00,66.0,40.0,-100.00,NW,306,3.0,6.0,38,-99.99,,,-99.99,,2013-03-23 19:42:00,
2013-03-23 12:52:00,66.0,40.0,-100.00,NW,308,3.0,8.0,38,-99.99,,,-99.99,,2013-03-23 19:52:00,
2013-03-23 13:02:00,67.0,41.0,-100.00,NW,308,4.0,9.0,39,-99.99,,,-99.99,,2013-03-23 20:02:00,
2013-03-23 13:12:00,67.0,41.0,-100.00,WNW,294,5.0,9.0,39,-99.99,,,-99.99,,2013-03-23 20:12:00,
2013-03-23 13:22:00,67.0,41.0,-100.00,NW,312,5.0,12.0,39,-99.99,,,-99.99,,2013-03-23 20:22:00,
2013-03-23 13:32:00,68.0,43.0,-100.00,WNW,302,6.0,11.0,40,-99.99,,,-99.99,,2013-03-23 20:32:00,
2013-03-23 13:42:00,67.0,44.0,-100.00,NW,312,5.0,13.0,43,-99.99,,,-99.99,,2013-03-23 20:42:00,
2013-03-23 13:52:00,67.0,45.0,-100.00,NW,309,7.0,11.0,45,-99.99,,,-99.99,,2013-03-23 20:52:00,
2013-03-23 14:12:00,66.0,46.0,-100.00,WNW,302,6.0,11.0,48,-99.99,,,-99.99,,2013-03-23 21:12:00,
2013-03-23 14:22:00,66.0,46.0,-100.00,WNW,303,6.0,12.0,49,-99.99,,,-99.99,,2013-03-23 21:22:00,
2013-03-23 14:32:00,66.0,47.0,-100.00,WNW,300,7.0,12.0,50,-99.99,,,-99.99,,2013-03-23 21:32:00,
2013-03-23 14:43:00,65.0,46.0,-100.00,WNW,292,6.0,13.0,51,-99.99,,,-99.99,,2013-03-23 21:43:00,
2013-03-23 14:53:00,65.0,46.0,-100.00,WNW,297,7.0,13.0,51,-99.99,,,-99.99,,2013-03-23 21:53:00,
2013-03-23 15:02:00,65.0,46.0,-100.00,WNW,298,6.0,13.0,50,-99.99,,,-99.99,,2013-03-23 22:02:00,
2013-03-23 15:12:00,65.0,45.0,-100.00,WNW,296,7.0,13.0,49,-99.99,,,-99.99,,2013-03-23 22:12:00,
2013-03-23 15:22:00,65.0,45.0,-100.00,WNW,296,7.0,11.0,48,-99.99,,,-99.99,,2013-03-23 22:22:00,
2013-03-23 15:32:00,65.0,45.0,-100.00,WNW,293,6.0,13.0,48,-99.99,,,-99.99,,2013-03-23 22:32:00,
2013-03-23 15:42:00,65.0,44.0,-100.00,WNW,286,5.0,10.0,47,-99.99,,,-99.99,,2013-03-23 22:42:00,
2013-03-23 15:52:00,66.0,45.0,-100.00,WNW,300,5.0,12.0,46,-99.99,,,-99.99,,2013-03-23 22:52:00,
2013-03-23 16:02:00,65.0,44.0,-100.00,WNW,291,6.0,12.0,47,-99.99,,,-99.99,,2013-03-23 23:02:00,
2013-03-23 16:12:00,65.0,45.0,-100.00,WNW,299,5.0,12.0,49,-99.99,,,-99.99,,2013-03-23 23:12:00,
2013-03-23 16:22:00,64.0,46.0,-100.00,WNW,286,6.0,11.0,52,-99.99,,,-99.99,,2013-03-23 23:22:00,
2013-03-23 16:32:00,64.0,47.0,-100.00,WNW,288,5.0,9.0,54,-99.99,,,-99.99,,2013-03-23 23:32:00,
2013-03-23 16:42:00,64.0,47.0,-100.00,WNW,291,5.0,9.0,55,-99.99,,,-99.99,,2013-03-23 23:42:00,
2013-03-23 16:52:00,64.0,48.0,-100.00,WNW,297,5.0,10.0,57,-99.99,,,-99.99,,2013-03-23 23:52:00,
2013-03-23 17:01:00,63.0,48.0,-100.00,WNW,299,5.0,10.0,58,-99.99,,,-99.99,,2013-03-24 00:01:00,
2013-03-23 17:12:00,63.0,48.0,-100.00,WNW,293,5.0,8.0,59,-99.99,,,-99.99,,2013-03-24 00:12:00,
2013-03-23 17:22:00,63.0,48.0,-100.00,WNW,289,5.0,9.0,59,-99.99,,,-99.99,,2013-03-24 00:22:00,
2013-03-23 17:32:00,63.0,49.0,-100.00,WNW,303,5.0,10.0,60,-99.99,,,-99.99,,2013-03-24 00:32:00,
2013-03-23 17:42:00,62.0,48.0,-100.00,WNW,299,5.0,9.0,61,-99.99,,,-99.99,,2013-03-24 00:42:00,
2013-03-23 17:52:00,62.0,49.0,-100.00,WNW,303,5.0,9.0,62,-99.99,,,-99.99,,2013-03-24 00:52:00,
2013-03-23 18:02:00,62.0,49.0,-100.00,WNW,293,5.0,9.0,63,-99.99,,,-99.99,,2013-03-24 01:02:00,
2013-03-23 18:12:00,62.0,49.0,-100.00,WNW,291,5.0,8.0,63,-99.99,,,-99.99,,2013-03-24 01:12:00,
2013-03-23 18:22:00,61.0,49.0,-100.00,WNW,303,5.0,8.0,64,-99.99,,,-99.99,,2013-03-24 01:22:00,
2013-03-23 18:32:00,60.0,49.0,-100.00,WNW,299,5.0,10.0,66,-99.99,,,-99.99,,2013-03-24 01:32:00,
2013-03-23 18:42:00,59.0,48.0,-100.00,NW,309,6.0,9.0,68,-99.99,,,-99.99,,2013-03-24 01:42:00,
2013-03-23 18:52:00,59.0,49.0,-100.00,NW,308,6.0,9.0,70,-99.99,,,-99.99,,2013-03-24 01:52:00,
2013-03-23 19:02:00,58.0,49.0,-100.00,NW,306,5.0,8.0,72,-99.99,,,-99.99,,2013-03-24 02:02:00,
2013-03-23 19:12:00,57.0,49.0,-100.00,WNW,301,5.0,7.0,74,-99.99,,,-99.99,,2013-03-24 02:12:00,
2013-03-23 19:21:00,56.0,49.0,-100.00,NW,310,4.0,6.0,76,-99.99,,,-99.99,,2013-03-24 02:21:00,
2013-03-23 19:32:00,55.0,48.0,-100.00,NW,308,4.0,6.0,78,-99.99,,,-99.99,,2013-03-24 02:32:00,
2013-03-23 19:42:00,54.0,48.0,-100.00,NW,309,4.0,6.0,80,-99.99,,,-99.99,,2013-03-24 02:42:00,
2013-03-23 19:52:00,54.0,49.0,-100.00,NW,313,5.0,6.0,82,-99.99,,,-99.99,,2013-03-24 02:52:00,
2013-03-23 20:02:00,54.0,49.0,-100.00,NNW,330,4.0,4.0,82,-99.99,,,-99.99,,2013-03-24 03:02:00,
2013-03-23 20:12:00,54.0,48.0,-100.00,NW,317,4.0,4.0,81,-99.99,,,-99.99,,2013-03-24 03:12:00,
2013-03-23 20:22:00,55.0,49.0,-100.00,NW,306,3.0,4.0,80,-99.99,,,-99.99,,2013-03-24 03:22:00,
2013-03-23 20:33:00,55.0,49.0,-100.00,WNW,287,3.0,4.0,80,-99.99,,,-99.99,,2013-03-24 03:33:00,
2013-03-23 20:42:00,55.0,49.0,-100.00,NW,314,3.0,4.0,79,-99.99,,,-99.99,,2013-03-24 03:42:00,
2013-03-23 20:52:00,55.0,49.0,-100.00,NNE,15,2.0,3.0,79,-99.99,,,-99.99,,2013-03-24 03:52:00,
2013-03-23 21:02:00,55.0,48.0,-100.00,East,98,2.0,4.0,78,-99.99,,,-99.99,,2013-03-24 04:02:00,
2013-03-23 21:12:00,55.0,48.0,-100.00,ESE,120,3.0,4.0,78,-99.99,,,-99.99,,2013-03-24 04:12:00,
2013-03-23 21:22:00,55.0,48.0,-100.00,ESE,118,3.0,5.0,78,-99.99,,,-99.99,,2013-03-24 04:22:00,
2013-03-23 21:32:00,54.0,47.0,-100.00,East,94,3.0,4.0,76,-99.99,,,-99.99,,2013-03-24 04:32:00,
2013-03-23 21:42:00,54.0,43.0,-100.00,East,84,2.0,4.0,67,-99.99,,,-99.99,,2013-03-24 04:42:00,
2013-03-23 21:52:00,55.0,43.0,-100.00,East,99,2.0,5.0,63,-99.99,,,-99.99,,2013-03-24 04:52:00,
2013-03-23 22:02:00,55.0,41.0,-100.00,ESE,104,2.0,4.0,60,-99.99,,,-99.99,,2013-03-24 05:02:00,
2013-03-23 22:12:00,56.0,42.0,-100.00,East,84,2.0,4.0,59,-99.99,,,-99.99,,2013-03-24 05:12:00,
2013-03-23 22:22:00,55.0,43.0,-100.00,SSE,150,2.0,2.0,64,-99.99,,,-99.99,,2013-03-24 05:22:00,
2013-03-23 22:32:00,54.0,43.0,-100.00,North,-999,0.0,0.0,66,-99.99,,,-99.99,,2013-03-24 05:32:00,
2013-03-23 22:42:00,55.0,43.0,-100.00,SSW,203,0.0,3.0,63,-99.99,,,-99.99,,2013-03-24 05:42:00,
2013-03-23 22:51:00,55.0,41.0,-100.00,North,7,1.0,2.0,60,-99.99,,,-99.99,,2013-03-24 05:51:00,
2013-03-23 23:02:00,56.0,39.0,-100.00,ENE,68,0.0,4.0,53,-99.99,,,-99.99,,2013-03-24 06:02:00,
2013-03-23 23:12:00,57.0,38.0,-100.00,NE,52,2.0,2.0,48,-99.99,,,-99.99,,2013-03-24 06:12:00,
2013-03-23 23:22:00,57.0,37.0,-100.00,ESE,104,1.0,1.0,47,-99.99,,,-99.99,,2013-03-24 06:22:00,
2013-03-23 23:32:00,56.0,37.0,-100.00,East,96,1.0,3.0,49,-99.99,,,-99.99,,2013-03-24 06:32:00,
2013-03-23 23:42:00,56.0,38.0,-100.00,ENE,65,1.0,3.0,51,-99.99,,,-99.99,,2013-03-24 06:42:00,
2013-03-23 23:52:00,56.0,39.0,-100.00,ENE,68,2.0,2.0,52,-99.99,,,-99.99,,2013-03-24 06:52:00,